User: anonymous   Login
Location: Launois
(49.6535°N, 4.5395°E)
Time: 15:49:09
(UTC+00:00)
Language:

Cosmos 968 Rocket - Orbit

View from above orbital plane
View from above orbital plane
View from above satellite
View from above satellite

Ground track
Ground track

The orbit data is extracted from the following two-line orbital elements,

1 10521U 77119B   24207.15868876  .00000686  00000-0  21825-3 0  9999
2 10521  74.0271 142.6876 0021952 243.9118 115.9779 14.41617403446018
Epoch (UTC): 25 July 2024 03:48:30
Eccentricity: 0.0021952
inclination: 74.0271°
perigee height: 737 km
apogee height: 769 km
right ascension of ascending node: 142.6876°
argument of perigee: 243.9118°
revolutions per day: 14.41617403
mean anomaly at epoch: 115.9779°
orbit number at epoch: 44601

The dashed part of the orbit path shows where the satellite is in the earth's shadow,  

DLR